Time,TemperatureF,DewpointF,PressureIn,WindDirection,WindDirectionDegrees,WindSpeedMPH,WindSpeedGustMPH,Humidity,HourlyPrecipIn,Conditions,Clouds,dailyrainin,SoftwareType,DateUTC
2013-06-22 11:02:00,76.0,66.0,30.22,West,280,0.0,2.0,71,0.00,,,0.00,,2013-06-22 15:02:00,
2013-06-22 11:12:00,77.0,68.0,30.22,WNW,296,0.0,3.0,75,0.00,,,0.00,,2013-06-22 15:12:00,
2013-06-22 11:22:00,77.0,66.0,30.22,NW,311,1.0,4.0,69,0.00,,,0.00,,2013-06-22 15:22:00,
2013-06-22 11:34:00,77.0,68.0,30.22,WNW,284,0.0,5.0,73,0.00,,,0.00,,2013-06-22 15:34:00,
2013-06-22 11:43:00,79.0,70.0,30.22,WNW,287,0.0,2.0,75,0.00,,,0.00,,2013-06-22 15:43:00,
2013-06-22 12:02:00,81.0,67.0,30.22,West,278,1.0,3.0,63,0.00,,,0.00,,2013-06-22 16:02:00,
2013-06-22 12:12:00,82.0,70.0,30.22,WNW,295,1.0,3.0,67,0.00,,,0.00,,2013-06-22 16:12:00,
2013-06-22 12:34:00,82.0,69.0,30.21,WNW,282,0.0,2.0,64,0.00,,,0.00,,2013-06-22 16:34:00,
2013-06-22 12:43:00,82.0,68.0,30.21,NNW,332,0.0,2.0,63,0.00,,,0.00,,2013-06-22 16:43:00,
2013-06-22 13:02:00,83.0,70.0,30.20,NNW,327,0.0,3.0,64,0.00,,,0.00,,2013-06-22 17:02:00,
2013-06-22 13:11:00,83.0,70.0,30.20,NNW,327,0.0,3.0,64,0.00,,,0.00,,2013-06-22 17:11:00,
2013-06-22 13:22:00,83.0,68.0,30.20,NNW,343,0.0,5.0,61,0.00,,,0.00,,2013-06-22 17:22:00,
2013-06-22 13:43:00,83.0,67.0,30.19,NE,39,0.0,2.0,59,0.00,,,0.00,,2013-06-22 17:43:00,
2013-06-22 13:52:00,83.0,69.0,30.19,West,264,0.0,3.0,63,0.00,,,0.00,,2013-06-22 17:52:00,
2013-06-22 14:02:00,84.0,67.0,30.19,East,80,0.0,2.0,56,0.00,,,0.00,,2013-06-22 18:02:00,
2013-06-22 14:12:00,84.0,67.0,30.18,West,264,0.0,3.0,56,0.00,,,0.00,,2013-06-22 18:12:00,
2013-06-22 14:34:00,86.0,67.0,30.18,NW,308,1.0,6.0,53,0.00,,,0.00,,2013-06-22 18:34:00,
2013-06-22 14:43:00,85.0,66.0,30.17,East,98,0.0,4.0,53,0.00,,,0.00,,2013-06-22 18:43:00,
2013-06-22 14:52:00,84.0,64.0,30.17,NNW,327,1.0,3.0,52,0.00,,,0.00,,2013-06-22 18:52:00,
2013-06-22 15:01:00,84.0,65.0,30.17,East,79,0.0,3.0,53,0.00,,,0.00,,2013-06-22 19:01:00,
2013-06-22 15:11:00,83.0,67.0,30.17,NW,326,0.0,3.0,58,0.00,,,0.00,,2013-06-22 19:11:00,
2013-06-22 15:22:00,83.0,66.0,30.16,NW,325,0.0,2.0,57,0.00,,,0.00,,2013-06-22 19:22:00,
2013-06-22 15:43:00,81.0,65.0,30.16,NNW,330,0.0,3.0,58,0.00,,,0.00,,2013-06-22 19:43:00,
2013-06-22 15:53:00,81.0,66.0,30.15,West,274,0.0,3.0,60,0.00,,,0.00,,2013-06-22 19:53:00,
2013-06-22 16:02:00,82.0,66.0,30.15,NW,314,0.0,6.0,58,0.00,,,0.00,,2013-06-22 20:02:00,
2013-06-22 16:22:00,85.0,70.0,30.14,WNW,302,0.0,1.0,60,0.00,,,0.00,,2013-06-22 20:22:00,
2013-06-22 16:33:00,85.0,65.0,30.14,NW,308,0.0,3.0,51,0.00,,,0.00,,2013-06-22 20:33:00,
2013-06-22 16:43:00,85.0,65.0,30.14,West,281,0.0,3.0,52,0.00,,,0.00,,2013-06-22 20:43:00,
2013-06-22 16:53:00,84.0,66.0,30.14,NW,308,0.0,3.0,54,0.00,,,0.00,,2013-06-22 20:53:00,
2013-06-22 17:01:00,84.0,66.0,30.13,NW,308,0.0,1.0,54,0.00,,,0.00,,2013-06-22 21:01:00,
2013-06-22 17:11:00,84.0,64.0,30.13,West,270,1.0,2.0,52,0.00,,,0.00,,2013-06-22 21:11:00,
2013-06-22 17:22:00,83.0,65.0,30.13,WNW,288,1.0,2.0,54,0.00,,,0.00,,2013-06-22 21:22:00,
2013-06-22 17:34:00,83.0,65.0,30.13,WNW,288,0.0,1.0,55,0.00,,,0.00,,2013-06-22 21:34:00,
2013-06-22 17:43:00,83.0,66.0,30.13,NW,305,0.0,2.0,56,0.00,,,0.00,,2013-06-22 21:43:00,
2013-06-22 17:53:00,82.0,64.0,30.13,NW,305,0.0,2.0,55,0.00,,,0.00,,2013-06-22 21:53:00,
2013-06-22 18:02:00,82.0,65.0,30.12,West,276,0.0,3.0,57,0.00,,,0.00,,2013-06-22 22:02:00,
2013-06-22 18:12:00,81.0,64.0,30.12,ENE,77,0.0,3.0,57,0.00,,,0.00,,2013-06-22 22:12:00,
2013-06-22 18:23:00,82.0,66.0,30.12,ESE,103,0.0,3.0,58,0.00,,,0.00,,2013-06-22 22:23:00,
2013-06-22 18:33:00,81.0,64.0,30.12,North,352,0.0,1.0,56,0.00,,,0.00,,2013-06-22 22:33:00,
2013-06-22 18:43:00,81.0,64.0,30.12,North,358,0.0,1.0,56,0.00,,,0.00,,2013-06-22 22:43:00,
2013-06-22 18:52:00,80.0,64.0,30.12,NW,326,0.0,1.0,58,0.00,,,0.00,,2013-06-22 22:52:00,
2013-06-22 19:02:00,80.0,63.0,30.12,NNW,327,0.0,2.0,57,0.00,,,0.00,,2013-06-22 23:02:00,
2013-06-22 19:11:00,79.0,62.0,30.12,NW,326,0.0,2.0,57,0.00,,,0.00,,2013-06-22 23:11:00,
2013-06-22 19:34:00,79.0,63.0,30.12,NNW,330,0.0,1.0,58,0.00,,,0.00,,2013-06-22 23:34:00,
2013-06-22 19:43:00,79.0,63.0,30.12,NNW,330,0.0,1.0,58,0.00,,,0.00,,2013-06-22 23:43:00,
2013-06-22 19:52:00,79.0,65.0,30.12,NNW,330,0.0,0.0,62,0.00,,,0.00,,2013-06-22 23:52:00,
2013-06-22 20:01:00,78.0,63.0,30.12,NNW,330,0.0,0.0,61,0.00,,,0.00,,2013-06-23 00:01:00,
2013-06-22 20:11:00,77.0,63.0,30.12,NNW,330,0.0,1.0,61,0.00,,,0.00,,2013-06-23 00:11:00,
2013-06-22 20:22:00,76.0,62.0,30.12,NNW,330,0.0,0.0,62,0.00,,,0.00,,2013-06-23 00:22:00,
2013-06-22 20:34:00,76.0,64.0,30.13,NNW,330,0.0,0.0,66,0.00,,,0.00,,2013-06-23 00:34:00,
2013-06-22 20:42:00,75.0,63.0,30.13,NNW,330,0.0,1.0,66,0.00,,,0.00,,2013-06-23 00:42:00,
2013-06-22 20:53:00,75.0,63.0,30.13,NNW,330,0.0,1.0,66,0.00,,,0.00,,2013-06-23 00:53:00,
2013-06-22 21:01:00,74.0,63.0,30.13,NNW,330,0.0,0.0,68,0.00,,,0.00,,2013-06-23 01:01:00,
2013-06-22 21:12:00,74.0,63.0,30.13,NNW,330,0.0,0.0,68,0.00,,,0.00,,2013-06-23 01:12:00,
2013-06-22 21:22:00,74.0,63.0,30.13,NNW,330,0.0,0.0,68,0.00,,,0.00,,2013-06-23 01:22:00,
2013-06-22 21:32:00,74.0,63.0,30.13,NNW,330,0.0,0.0,68,0.00,,,0.00,,2013-06-23 01:32:00,
2013-06-22 22:52:00,72.0,62.0,30.15,NNW,340,0.0,1.0,71,0.00,,,0.00,,2013-06-23 02:52:00,
2013-06-22 23:01:00,72.0,62.0,30.15,NNW,340,0.0,1.0,71,0.00,,,0.00,,2013-06-23 03:01:00,
2013-06-22 23:11:00,72.0,62.0,30.15,NNW,340,0.0,1.0,71,0.00,,,0.00,,2013-06-23 03:11:00,
2013-06-22 23:21:00,72.0,62.0,30.15,NNW,340,0.0,1.0,71,0.00,,,0.00,,2013-06-23 03:21:00,
2013-06-22 23:31:00,72.0,62.0,30.15,NNW,340,0.0,1.0,71,0.00,,,0.00,,2013-06-23 03:31:00,
2013-06-22 23:52:00,70.0,63.0,30.16,NNW,332,0.0,0.0,78,0.00,,,0.00,,2013-06-23 03:52:00,